Home > Weather > Ås > Past weeks

Flag for Norway Weather for the Past 2 Weeks in Ås, Norway

Now
37 °F

Partly sunny.


Feels Like: 26 °F
Forecast: 16 / 29 °F
Wind: 26 mph from North

Location: Statfjord B

Current Time: Feb 14, 2016 at 4:31:59 PM

Latest Report: Feb 14, 2016 at 3:50 PM


Visibility: N/A

Pressure: 29.68 "Hg

Humidity: 56%

Dew point: 23 °F

Location of ÅsLocation

Historic Weather in Ås — Graph

°F

Ås Temperature Yesterday

Maximum temperature yesterday: 39 °F (at 10:50 AM)
Minimum temperature yesterday: 34 °F (at 2:50 AM)
Average temperature yesterday: 37 °F

High & Low Weather Summary for the Past Weeks

 TemperatureHumidityPressure
High46 °F (Feb 1, 1:20 PM)100% (Feb 1, 11:20 AM)29.98 "Hg (Feb 1, 11:20 AM)
Low34 °F (Jan 31, 7:50 AM)45% (Feb 4, 11:50 AM)28.41 "Hg (Feb 7, 11:20 PM)
Average41 °F76%29.23 "Hg
* Reported Jan 30 3:20 PM — Feb 14 3:20 PM, Ås, Weather by CustomWeather, © 2016

Note: Actual official high and low records may vary slightly from our data, if they occured in-between our weather recording intervals... More about our weather records

Advertising

Ås Weather History for the Previous 24 Hours

 ConditionsComfort  
Time TempWeatherWind HumidityBarometerVisibility
3:20 PM
Sun, Feb 14
37 °FBroken clouds.28 mph60%29.68 "HgN/A
2:50 PM37 °FPartly sunny.28 mph60%29.68 "HgN/A
2:20 PM37 °FPartly sunny.30 mph65%29.65 "HgN/A
1:50 PM37 °FSprinkles. Partly sunny.28 mph65%29.65 "Hg5 mi
1:20 PM36 °FSprinkles. Partly sunny.31 mph81%29.65 "HgN/A
12:50 PM37 °FPartly sunny.31 mph75%29.65 "HgN/A
12:20 PM36 °FLight rain. Overcast.30 mph87%29.65 "HgN/A
11:50 AM36 °FSprinkles. Broken clouds.32 mph87%29.62 "HgN/A
11:20 AM36 °FSprinkles. Partly sunny.32 mph87%29.62 "HgN/A
10:50 AM36 °FSprinkles. Overcast.33 mph87%29.59 "HgN/A
10:20 AM36 °FSprinkles. Partly sunny.25 mph93%29.62 "HgN/A
9:50 AM36 °FSprinkles. Broken clouds.26 mph87%29.59 "HgN/A
9:20 AM37 °FScattered clouds.25 mph81%29.59 "HgN/A
8:20 AM36 °FPartly sunny.30 mph87%29.56 "HgN/A
7:50 AM37 °FPassing clouds.26 mph70%29.53 "HgN/A
7:20 AM37 °FPassing clouds.31 mph75%29.53 "HgN/A
6:50 AM37 °FPassing clouds.26 mph81%29.53 "HgN/A
6:20 AM37 °FPassing clouds.30 mph87%29.50 "HgN/A
5:50 AM36 °FPassing clouds.23 mph87%29.53 "HgN/A
4:50 AM37 °FPassing clouds.18 mph75%29.50 "HgN/A
3:50 AM36 °FSprinkles. Partly cloudy.21 mph87%29.50 "Hg4 mi
3:20 AM39 °FPassing clouds.20 mph70%29.50 "HgN/A
2:50 AM39 °FPassing clouds.22 mph65%29.50 "HgN/A
2:20 AM39 °FPassing clouds.22 mph70%29.50 "HgN/A
1:50 AM37 °FPassing clouds.28 mph65%29.50 "HgN/A
1:20 AM37 °FPassing clouds.20 mph70%29.50 "HgN/A
12:50 AM39 °FPassing clouds.21 mph65%29.50 "HgN/A
12:20 AM37 °FPassing clouds.20 mph70%29.50 "HgN/A
11:50 PM
Sat, Feb 13
37 °FPassing clouds.17 mph75%29.50 "HgN/A
11:20 PM37 °FPassing clouds.21 mph75%29.50 "HgN/A
10:50 PM37 °FPassing clouds.20 mph81%29.50 "HgN/A
9:50 PM37 °FLight rain. Passing clouds.23 mph70%29.47 "HgN/A
9:20 PM37 °FPassing clouds.18 mph70%29.47 "HgN/A
8:50 PM36 °FPartly cloudy.18 mph75%29.47 "HgN/A
8:20 PM37 °FSprinkles. Passing clouds.15 mph70%29.47 "HgN/A
7:50 PM37 °FSprinkles. Passing clouds.17 mph70%29.47 "HgN/A
7:20 PM39 °FPartly cloudy.22 mph56%29.47 "HgN/A
6:50 PM37 °FPassing clouds.24 mph56%29.47 "HgN/A
6:20 PM39 °FPassing clouds.24 mph52%29.45 "HgN/A
5:50 PM37 °FPassing clouds.25 mph56%29.45 "HgN/A
5:20 PM37 °FPassing clouds.23 mph60%29.45 "HgN/A
4:50 PM39 °FPartly sunny.25 mph65%29.45 "HgN/A
4:20 PM37 °FPassing clouds.23 mph65%29.45 "HgN/A
Weather by CustomWeather, © 2016

See weather overviewHow to use our weather pages